This is the latest recevied weather packets stored in our database for station/object AI9T. If no packets are shown the sender has not sent any weather packets the latest 10 day(s).
| Time | Temp. | Humidity | Pressure | Rain* | Wind** | Luminosity | Snow |
|---|---|---|---|---|---|---|---|
| 1778212204 | 12.22° C | 58% | 1013.4 hPa | 0 mm | - | - | - |
| 1778210704 | 12.22° C | 60% | 1013.5 hPa | 0 mm | - | - | - |
| 1778204404 | 13.33° C | 58% | 1013 hPa | 0 mm | - | - | - |
| 1778198703 | 15.56° C | 48% | 1012.6 hPa | 0 mm | - | - | - |
| 1778197803 | 15.56° C | 48% | 1012.7 hPa | 0 mm | - | - | - |
| 1778191803 | 17.22° C | 39% | 1013 hPa | 0 mm | - | - | - |
| 1778190603 | 17.22° C | 39% | 1013.1 hPa | 0 mm | - | - | - |
| 1778190003 | 17.22° C | 42% | 1012.9 hPa | 0 mm | - | - | - |
| 1778188203 | 17.78° C | 37% | 1013 hPa | 0 mm | - | - | - |
| 1778187003 | 17.78° C | 36% | 1013.3 hPa | 0 mm | - | - | - |
| 1778183104 | 17.78° C | 33% | 1014.3 hPa | 0 mm | - | - | - |
| 1778179504 | 17.22° C | 39% | 1014.9 hPa | 0 mm | - | - | - |
| 1778176803 | 16.67° C | 37% | 1015.3 hPa | 0 mm | - | - | - |
| 1778175304 | 16.67° C | 37% | 1015.6 hPa | 0 mm | - | - | - |
| 1778166904 | 13.89° C | 49% | 1016.8 hPa | 0 mm | - | - | - |
| 1778165103 | 13.33° C | 48% | 1016.8 hPa | 0 mm | - | - | - |
| 1778164504 | 13.33° C | 46% | 1016.7 hPa | 0 mm | - | - | - |
| 1778160603 | 10.56° C | 60% | 1016.7 hPa | 0 mm | - | - | - |
| 1778158204 | 7.78° C | 91% | 1016.7 hPa | 0 mm | - | - | - |
| 1778157004 | 6.67° C | 95% | 1016.6 hPa | 0 mm | - | - | - |
| 1778156704 | 6.11° C | 95% | 1016.7 hPa | 0 mm | - | - | - |
| 1778154904 | 3.89° C | 93% | 1016.5 hPa | 0 mm | - | - | - |
| 1778154004 | 3.89° C | 93% | 1016.3 hPa | 0 mm | - | - | - |
| 1778152503 | 3.33° C | 93% | 1016.1 hPa | 0 mm | - | - | - |
| 1778151604 | 3.33° C | 93% | 1016 hPa | 0 mm | - | - | - |
* Rain latest hour (hover to see other rain measurements)
** Current wind speed in m/s (hover to see current wind gust speed)